STAR ONE D1

Last updated on Tue Sep 22 2026 00:03:14 GMT+0000 (Coordinated Universal Time)

1 41904U 16082B 26264.47243060 -.00000215 00000+0 00000+0 0 9998 2 41904 0.0227 243.9437 0002299 292.2336 270.2678 1.00271038 35734
UTC large
Height (km)
Speed (km/s)
/
Latitude / Longitude
Inclination (degrees)
Orbital Period (minutes)
Azimuth
Elevation
Range (km)
Doppler Factor

Next 0 passes for location: London (51.5072 / 0.1276)

No passes found over London.
STAR ONE D1